Regional Weather Roundup
Issued by NWS

Home | Current Version | Previous Version | Text Only | Print | Product List | Glossary Off
Versions: 1 2 3 4 5 6 7 8 9 10 11 12 13 14 15 16 17 18 19 20 21 22 23 24 25 26 27 28 29 30 31 32 33 34 35 36 37 38 39 40 41 42 43 44 45 46 47 48 49 50

000
ASUS45 KBOU 170310
RWRCO

WEATHER ROUNDUP FOR COLORADO
NATIONAL WEATHER SERVICE DENVER/BOULDER CO
800 PM MST TUE JAN 16 2018

NOTE: "FAIR" INDICATES FEW OR NO CLOUDS BELOW 12000 FEET WITH NO
SIGNIFICANT WEATHER AND/OR OBSTRUCTIONS TO VISIBILITY.

COZ001>005-013-030-031-170400-
...NORTHWEST COLORADO...

CITY           SKY/WX    TMP DP  RH WIND       PRES   REMARKS
CRAIG          FAIR      10   1  67 CALM      30.34R
HAYDEN         FAIR      16   2  54 E12       30.34R WCI   3
MEEKER         FAIR      20  14  77 NE3       30.33R
RABBIT EARS PA FAIR      19   1  45 SW6       30.30S WCI  11
STEAMBOAT SPGS FAIR       9   2  72 CALM      30.33R
WALDEN         FAIR       5  -4  66 SE7       30.31S WCI  -7
$$

COZ006>008-011-170400-
...WEST CENTRAL VALLEYS...

CITY           SKY/WX    TMP DP  RH WIND       PRES   REMARKS
GRAND JUNCTION FAIR      29  16  58 CALM      30.33S
MONTROSE       FAIR      23  15  71 SE8       30.35R WCI  14
EAGLE          FAIR      17   6  62 E7        30.38R WCI   8
RIFLE          FAIR      26  15  63 SE3       30.35R
DELTA          FAIR      29  13  52 CALM      30.34R
NUCLA          FAIR      28  14  54 E12       30.35S WCI  18
$$

COZ017>023-064>068-170400-
...SOUTHWEST COLORADO...

CITY           SKY/WX    TMP DP  RH WIND       PRES   REMARKS
DURANGO        FAIR      25  18  74 N6        30.33R WCI  18
CORTEZ         FAIR      23  18  81 NE8       30.34S WCI  14
PAGOSA SPRINGS FAIR      27  18  70 CALM      30.33R
TELLURIDE      FAIR      25   8  48 CALM      30.34R
WOLF CREEK PAS FAIR      23  -6  28 CALM      30.37S
$$

COZ009-010-012-014-032>034-037-058>063-170400-
...CENTRAL COLORADO...

CITY           SKY/WX    TMP DP  RH WIND       PRES   REMARKS
ASPEN          FAIR      17   1  49 SW7       30.30R WCI   8
BUENA VISTA    FAIR      14   0  53 CALM      30.29R
COPPER MTN     NOT AVBL
BERTHOUD PASS  FAIR      14   3  62 NW16G22   30.29S WCI  -2
COTTONWOOD PAS   N/A     32  -9  16 CALM      30.28F
GUNNISON       FAIR      14   8  77 CALM      30.34R
KREMMLING      FAIR      10   1  67 N3        30.38S
LEADVILLE      FAIR      11  -7  44 NE6       30.28F WCI   1
MONARCH PASS   FAIR      18  -8  32 SW7       30.41S WCI   8
SALIDA         FAIR      24   7  48 CALM      30.37R
SUNLIGHT       FAIR      21  -8  27 W3        30.36S
WILKERSON PASS FAIR      23 -18  15 NW8       30.31S WCI  14
$$

COZ069>075-170400-
...SAN LUIS VALLEY/SANGRE DE CRISTO MOUNTAINS...

CITY           SKY/WX    TMP DP  RH WIND       PRES   REMARKS
ALAMOSA        FAIR      15   8  73 CALM      30.32S
DEL NORTE      FAIR      14   7  73 W5        30.33R WCI   7
LA VETA PASS   FAIR      16  12  86 SW22        N/A  WCI  -2
SAGUACHE       FAIR      12   9  85 NE6       30.34S WCI   3
$$

COZ035-036-038>040-170400-
...NORTHERN COLORADO FRONT RANGE...

CITY           SKY/WX    TMP DP  RH WIND       PRES   REMARKS
DENVER INTL AP FAIR      23   9  55 S8        30.25F WCI  14
DMNS CITY PARK NOT AVBL
AURORA         CLEAR     23  11  60 S9        30.25F WCI  13
FRONT RANGE AP CLEAR     21  12  68 S9        30.26F WCI  11
ERIE MUNI ARPT FAIR      17  13  84 CALM      30.33S
BOULDER MUN AP FAIR      23  19  86 CALM      30.27S
CENTENNIAL     FAIR      24  10  55 SE6       30.25F WCI  17
BROOMFIELD     NOT AVBL
FORT COLLINS   FAIR      18  12  77 N3        30.28F
LONGMONT       FAIR      18  13  79 W3        30.30F
$$

COZ041-046-047-076>085-087-088-170400-
...PIKES PEAK/PALMER DIVIDE AND SOUTHERN FOOTHILLS...

CITY           SKY/WX    TMP DP  RH WIND       PRES   REMARKS
COLO. SPRINGS  FAIR      16   3  56 CALM      30.33F
A. F. ACADEMY  FAIR      18   1  47 CALM      30.30F
SCHRIEVER AFB  FAIR      11   5  77 W5        30.33S WCI   3
CHEYENNE MTN   FAIR      21   7  55 CALM      30.24F
ELLICOTT         N/A    N/A N/A N/A CALM        N/A
FALCON         FAIR      14   3  61 W7        30.30F WCI   4
FORT CARSON    FAIR      20  12  71 S7        30.32F WCI  11
LIMON          FAIR      13   2  61 CALM      30.31F
MONUMENT HILL  FAIR      18   5  57 S12       30.27F WCI   5
CANON CITY     FAIR      21  14  73 N5        30.35F WCI  15
WALSENBURG     FAIR      23  12  63 CALM      30.31F
TRINIDAD       FAIR      18  10  71 NW7       30.33F WCI   9
$$

COZ042>045-048>051-090-091-170400-
...NORTHEAST COLORADO...

CITY           SKY/WX    TMP DP  RH WIND       PRES   REMARKS
GREELEY ARPT   FAIR       9   3  77 NW5       30.30F WCI   1
AKRON          FAIR      14  -1  51 S7        30.30F WCI   4
BURLINGTON     FAIR      13   0  56 S13       30.38F WCI  -2
WRAY           FAIR      18   0  45 CALM      30.38F
YUMA           FAIR       5  -4  66 S7        30.35S WCI  -7
STERLING       FAIR      14   1  57 W6        30.33F WCI   5
HOLYOKE        FAIR      14   5  67 S10       30.37F WCI   1
FORT MORGAN    FAIR      17   0  47 NE6       30.31S WCI   8
$$

COZ086-089-092>099-170400-
...SOUTHEAST COLORADO...

CITY           SKY/WX    TMP DP  RH WIND       PRES   REMARKS
PUEBLO         FAIR      15   8  73 N6        30.37F WCI   6
LA JUNTA       FAIR      18  -3  39 E6        30.39F WCI  10
LAMAR          FAIR      12  -4  48 VRB3      30.42F
SPRINGFIELD      N/A     10  -1  61 S10       30.41F WCI  -4
$$



USA.gov is the U.S. government's official web portal to all federal, state and local government web resources and services.